Home   Weather   Paradise   Past weeks

Flag for Canada Past Weather in Paradise, Newfoundland and Labrador, Canada — Yesterday and Last 2 Weeks

Now
54 °F

Partly sunny.


Feels Like: 48 °F
Forecast: 48 / 59 °F
Wind: 21 mph from West

Location: St. John's

Current Time: Apr 29, 2017 at 1:26:06 pm

Latest Report: Apr 29, 2017 at 12:30 pm


Visibility: 15 mi

Pressure: 29.64 "Hg

Humidity: 88%

Dew Point: 50 °F

Location of ParadiseLocation

Past Weather in Paradise — Graph

°F

Paradise Temperature Yesterday

Maximum temperature yesterday: 55 °F (at 12:30 pm)
Minimum temperature yesterday: 32 °F (at 12:30 am)
Average temperature yesterday: 44 °F

High & Low Weather Summary for the Past Weeks

 TemperatureHumidityPressure
High55 °F (Apr 28, 12:30 pm)100% (Apr 15, 1:30 am)30.53 "Hg (Apr 15, 1:30 am)
Low23 °F (Apr 18, 5:39 am)33% (Apr 26, 8:30 pm)29.66 "Hg (Apr 17, 4:46 pm)
Average34 °F86%30.13 "Hg
* Reported Apr 14 11:30 am — Apr 29 11:30 am, Paradise, Weather by CustomWeather, © 2017

Note: Actual official high and low records may vary slightly from our data, if they occured in-between our weather recording intervals... More about our weather records

Advertising

Paradise Weather History for the Previous 24 Hours

Scroll right to see more
 ConditionsComfort  
Time TempWeatherWind HumidityBarometerVisibility
11:30 am
Sat, Apr 29
54 °FMore clouds than sun.21 mph88%29.66 "Hg12 mi
10:30 am54 °FBroken clouds.22 mph94%29.67 "Hg12 mi
9:30 am50 °FMore clouds than sun.17 mph100%29.72 "Hg10 mi
8:58 am50 °FMostly cloudy.16 mph100%29.73 "Hg8 mi
8:30 am48 °FFog.13 mph100%29.75 "Hg0 mi
8:12 am50 °FFog.17 mph100%29.75 "Hg1 mi
7:50 am50 °FFog.17 mph100%29.76 "Hg0 mi
7:30 am50 °FCool.17 mph100%29.77 "Hg5 mi
6:30 am50 °FOvercast.13 mph100%29.79 "Hg15 mi
5:55 am52 °FOvercast.13 mph94%29.80 "Hg15 mi
4:30 am52 °FLight rain. Low clouds.14 mph100%29.86 "Hg12 mi
4:11 am52 °FLight rain. Low clouds.10 mph100%29.87 "Hg12 mi
3:30 am55 °FPassing clouds.10 mph94%29.89 "Hg15 mi
2:30 am55 °FPassing clouds.12 mph94%29.94 "Hg15 mi
1:30 am55 °FDrizzle. Low clouds.13 mph94%29.98 "Hg10 mi
1:08 am54 °FPassing clouds.16 mph100%29.99 "Hg15 mi
12:36 am52 °FDrizzle. Fog.14 mph100%30.02 "Hg2 mi
11:30 pm
Fri, Apr 28
54 °FDrizzle. Low clouds.13 mph94%30.05 "Hg10 mi
10:48 pm54 °FDrizzle. Low clouds.13 mph94%30.08 "Hg12 mi
10:30 pm52 °FDrizzle. Fog.13 mph100%30.09 "Hg1 mi
9:30 pm54 °FLow clouds.12 mph94%30.11 "Hg15 mi
8:55 pm54 °FOvercast.12 mph94%30.12 "Hg15 mi
8:30 pm54 °FDrizzle. Fog.13 mph94%30.13 "Hg1 mi
7:30 pm54 °FLow clouds.13 mph100%30.15 "Hg8 mi
6:30 pm54 °FOvercast.13 mph100%30.17 "Hg10 mi
5:54 pm54 °FOvercast.13 mph94%30.19 "Hg10 mi
5:30 pm45 °FOvercast.5 mph87%30.19 "Hg12 mi
4:30 pm46 °FOvercast.6 mph82%30.22 "Hg8 mi
3:30 pm41 °FFog.2 mph100%30.23 "Hg1 mi
2:30 pm39 °FFog.2 mph93%30.24 "Hg1 mi
2:04 pm39 °FFog.6 mph93%30.25 "Hg1 mi
1:30 pm39 °FChilly.8 mph93%30.24 "Hg1 mi
1:25 pm39 °FFog.9 mph93%30.24 "Hg1 mi
Weather by CustomWeather, © 2017

See weather overviewHow to use our weather pages